Tracking 19638 objects as of 19-May-2019
HD Live streaming from Space Station
objects crossing your sky now

GORIZONT 32

Track GORIZONT 32 now!
GORIZONT 32 is classified as:


NORAD ID: 23880
Int'l Code: 1996-034A
Perigee: 35,775.3 km
Apogee: 35,884.8 km
Inclination: 14.3 °
Period: 1,438.0 minutes
Semi major axis: 42201 km
RCS: 17.7827 m2 (large)
Launch date: May 25, 1996
Source: Commonwealth of Independent States (former USSR) (CIS)
Launch site: TYURATAM MISSILE AND SPACE COMPLEX (TTMTR)

Telecommunications; augment television channels available to the people of Siberia.
aabbcc
Your satellite tracking list
Your tracking list is empty




NASA's NSSDC Master Catalog

Two Line Element Set (TLE):
1 23880U 96034A   19139.14065468 -.00000112  00000-0  00000+0 0  9994
2 23880  14.3340  15.7904 0012969 311.1970 215.6132  1.00142490 84141
Source of the keplerian elements: AFSPC